[[{"header":{"parameterUnit":"m.s-1","parameterCategory":1,"la1":30.2991,"la2":30.254,"lo1":-89.0895,"lo2":-89.0444,"dy":0.0017,"dx":0.0017,"nx":28,"ny":28,"refTime":"2025-02-08T09:00:00:Z","depth":0,"parameterNumber":2,"parameterNumberName":"U-component_of_WINDS"},"data":[0,0,0,0,0,0,0,0,0,0,0,0,0,0,0,0,0,0,0,0,0,0,0,0,0,0,0,0,0,0,0,0,0,0,0,0,0,0,0,0,0,0,0,0,0,0,0,0,0,0,0,0,0,0,0,0,0,0,1.1593,1.1594,0,1.163,1.1631,1.1631,1.1621,1.162,1.162,1.1619,1.1659,1.1661,1.1662,0,0,0,0,0,0,0,0,0,0,0,0,0,1.1516,1.1517,1.1593,1.1594,1.1594,1.163,1.1631,1.1631,1.1621,1.162,1.162,1.1619,1.1658,1.166,1.1662,0,0,0,0,0,0,0,0,0,0,0,0,0,1.1551,1.1518,1.1593,1.1594,1.1594,1.163,1.1631,1.1631,1.1622,1.162,1.1619,1.1618,1.1658,1.166,1.1663,1.1701,0,0,1.1671,1.1672,0,0,0,0,0,0,0,0,1.1549,1.1554,1.1593,1.1594,1.1594,1.162,1.1618,1.1655,1.1622,1.1611,1.1619,1.1618,1.1647,1.165,1.166,1.1703,1.1705,1.1671,1.1673,1.1674,1.1675,0,0,0,0,0,0,0,1.1546,1.1552,1.1608,1.1594,1.1594,1.1592,1.1596,1.1625,1.1635,1.1612,1.1611,1.1616,1.1647,1.1657,1.1661,1.1706,1.1671,1.1673,1.1675,1.1676,1.1783,1.1784,0,0,0,0,0,0,1.1543,1.155,1.1607,1.1609,1.1568,1.1595,1.1599,1.1613,1.1635,1.1637,1.1617,1.1615,1.1653,1.1658,1.1662,1.1709,1.1674,1.1676,1.1678,1.1781,1.1783,1.1784,0,0,0,0,0,0,1.1542,1.1549,1.1605,1.1579,1.1587,1.1597,1.1613,1.1614,1.1624,1.1638,1.164,1.1625,1.1653,1.1658,1.1692,1.171,1.1677,1.168,1.178,1.1782,1.1783,1.1802,0,0,0,0,0,0,1.154,1.1548,1.1562,1.158,1.1588,1.1634,1.1614,1.1616,1.1629,1.1627,1.1647,1.1649,1.1652,1.1688,1.1694,1.1713,1.1682,1.1778,1.1781,1.1783,1.18,1.1804,1.1808,0,0,0,0,0,1.1537,1.1567,1.1563,1.157,1.1606,1.1635,1.164,1.1642,1.163,1.1645,1.1654,1.1648,1.1707,1.1691,1.1698,1.1718,1.1777,1.178,1.1783,1.1798,1.1804,1.1808,0,0,0,0,0,0,1.1552,1.1569,1.1565,1.1602,1.1617,1.1633,1.1652,1.1648,1.1667,1.1665,1.1668,1.1673,1.1707,1.1716,1.1698,1.1757,1.174,1.1745,1.1749,1.1755,1.1759,1.1756,1.1684,0,0,0,0,0,1.1559,1.1581,1.1595,1.1626,1.1633,1.1641,1.1654,1.1655,1.1671,1.1677,1.1688,1.1705,1.1727,1.1741,1.1762,1.1801,1.1805,1.1818,1.1823,1.1826,1.183,1.1851,1.1857,1.1793,1.1793,1.1793,0,0,1.1575,1.1587,1.1601,1.1629,1.1641,1.1663,1.1647,1.1671,1.1688,1.1681,1.1713,1.1722,1.174,1.1776,1.1793,1.1785,1.1848,1.1829,1.1832,1.1834,1.1854,1.186,1.1866,1.1795,1.1795,1.1795,0,0,1.1616,1.1627,1.1653,1.1665,1.1683,1.1688,1.1695,1.1712,1.1717,1.1749,1.1744,1.1764,1.1802,1.1815,1.1827,1.1872,1.1867,1.1879,1.1901,1.1921,1.1926,1.193,1.1946,1.1952,1.1883,1.1883,1.1883,0,1.1633,1.1666,1.1668,1.1693,1.1705,1.1699,1.1726,1.1738,1.1762,1.1771,1.1762,1.1809,1.1821,1.186,1.1871,1.1881,1.1888,1.1877,1.1925,1.193,1.1934,1.1949,1.1955,1.1884,1.1884,1.1884,1.1883,0,1.1687,1.171,1.173,1.1752,1.1767,1.1793,1.1799,1.1814,1.1813,1.1819,1.1852,1.1866,1.1889,1.1899,1.1899,1.1938,1.1932,1.1924,1.1908,1.1941,1.1955,1.1961,1.1886,1.1885,1.1885,1.1884,0,0,1.1738,1.1761,1.1768,1.1778,1.1797,1.1815,1.1841,1.1864,1.1876,1.1893,1.1915,1.1947,1.1939,1.1952,1.1954,1.1972,1.2006,1.1961,1.1962,1.1969,1.205,1.2056,1.2063,1.2003,1.2004,1.2005,1.2048,0,1.178,1.1825,1.1827,1.1868,1.1889,1.1883,1.1906,1.192,1.1927,1.1946,1.1953,1.1976,1.1964,1.1972,1.199,1.1998,1.2022,1.1995,1.2024,1.2025,1.2019,1.207,1.2077,1.2117,1.2054,1.2055,1.2056,0,1.1835,1.1853,1.1895,1.1911,1.192,1.194,1.1961,1.1979,1.1996,1.1999,1.2014,1.2012,1.2039,1.2021,1.2058,1.204,1.2052,1.2058,1.2059,1.2062,1.2042,1.2074,1.2129,1.2135,1.2064,1.2064,1.2063,0,1.1868,1.1902,1.1932,1.1941,1.196,1.1975,1.1983,1.1998,1.2012,1.203,1.2038,1.206,1.2072,1.2088,1.2093,1.208,1.213,1.2112,1.2133,1.2133,1.2144,1.2143,1.2202,1.2152,1.2152,1.2152,1.2152,0,1.1914,1.1941,1.1947,1.1966,1.1995,1.1997,1.2027,1.2035,1.2048,1.2068,1.2065,1.2084,1.2089,1.2109,1.2113,1.2143,1.2148,1.2152,1.2152,1.2152,1.2151,1.216,1.2157,1.2153,1.2153,1.2153,1.2153,0,1.1956,1.1961,1.1994,1.2009,1.2013,1.2034,1.2048,1.2066,1.2071,1.2097,1.2103,1.2112,1.2136,1.2142,1.217,1.2173,1.2208,1.2206,1.2202,1.2202,1.2223,1.2221,1.2288,1.2297,1.2242,1.2242,1.2243,0,1.1985,1.2005,1.2022,1.2035,1.2045,1.2066,1.2079,1.2082,1.2096,1.2116,1.2131,1.2154,1.2173,1.221,1.222,1.2241,1.224,1.2262,1.2243,1.2242,1.224,1.2239,1.2241,1.2266,1.2267,1.2267,1.2267,0,1.2036,1.2038,1.2057,1.2077,1.2093,1.2109,1.2124,1.2135,1.2141,1.2157,1.218,1.2194,1.2223,1.2245,1.2267,1.2276,1.2273,1.2273,1.2279,1.2279,1.2276,1.2277,1.2212,1.2272,1.2271,1.2271,1.2271,1.2271,1.2072,1.209,1.2105,1.2126,1.2138,1.2152,1.217,1.2177,1.2197,1.222,1.2221,1.2246,1.2262,1.229,1.2301,1.2321,1.2314,1.2323,1.2325,1.2327,1.2329,1.2273,1.2325,1.2325,1.2325,1.2325,1.2325,0,1.2123,1.2132,1.2152,1.2173,1.219,1.2185,1.2202,1.2216,1.2238,1.2253,1.2271,1.2298,1.232,1.2331,1.2353,1.2367,1.2366,1.2373,1.2371,1.2374,1.2334,1.2326,1.2373,1.2373,1.2373,1.2373,1.2373,1.2373,1.2152,1.2181,1.2184,1.2219,1.2228,1.2253,1.2263,1.2276,1.2288,1.2318,1.2336,1.2343,1.2356,1.2379,1.2399,1.2401,1.2409,1.2417,1.2419,1.2381,1.2377,1.2372,1.2365,1.2419,1.2419,1.2457,1.2457,1.2458]},{"header":{"parameterUnit":"m.s-1","parameterCategory":1,"la1":30.2991,"la2":30.254,"lo1":-89.0895,"lo2":-89.0444,"dy":0.0017,"dx":0.0017,"nx":28,"ny":28,"refTime":"2025-02-08T09:00:00:Z","depth":0,"parameterNumber":3,"parameterNumberName":"V-component_of_WINDS"},"data":[0,0,0,0,0,0,0,0,0,0,0,0,0,0,0,0,0,0,0,0,0,0,0,0,0,0,0,0,0,0,0,0,0,0,0,0,0,0,0,0,0,0,0,0,0,0,0,0,0,0,0,0,0,0,0,0,0,0,3.7125,3.7126,0,3.7208,3.7209,3.721,3.7205,3.7204,3.7203,3.7202,3.7286,3.729,3.7293,0,0,0,0,0,0,0,0,0,0,0,0,0,3.6962,3.6965,3.7125,3.7126,3.7127,3.7208,3.7209,3.7211,3.7206,3.7204,3.7203,3.7201,3.7285,3.7289,3.7293,0,0,0,0,0,0,0,0,0,0,0,0,0,3.7038,3.6966,3.7125,3.7135,3.7136,3.7208,3.721,3.7211,3.7206,3.7204,3.7202,3.7201,3.7284,3.7289,3.7294,3.7362,0,0,3.7309,3.7312,0,0,0,0,0,0,0,0,3.7033,3.7044,3.7132,3.7134,3.7136,3.7195,3.7183,3.7261,3.7206,3.7179,3.7202,3.72,3.7257,3.7265,3.7284,3.7365,3.7369,3.731,3.7313,3.7315,3.7317,0,0,0,0,0,0,0,3.7028,3.704,3.7158,3.7133,3.7136,3.7135,3.7143,3.7198,3.7228,3.7182,3.7182,3.7191,3.7258,3.7279,3.7286,3.737,3.731,3.7314,3.7317,3.7319,3.7512,3.7514,0,0,0,0,0,0,3.7021,3.7036,3.7156,3.7161,3.7079,3.7139,3.7149,3.7178,3.7227,3.7233,3.7193,3.7191,3.7271,3.728,3.7289,3.7372,3.7315,3.732,3.7323,3.751,3.7512,3.7514,0,0,0,0,0,0,3.7017,3.7032,3.7152,3.7098,3.7113,3.7144,3.7176,3.718,3.7201,3.7235,3.7241,3.7209,3.727,3.7282,3.7344,3.7375,3.7322,3.7327,3.7507,3.751,3.7513,3.7538,0,0,0,0,0,0,3.7013,3.703,3.7056,3.7099,3.7116,3.7206,3.7178,3.7183,3.721,3.7208,3.7252,3.7257,3.727,3.7336,3.7349,3.7381,3.7331,3.7505,3.7509,3.7512,3.7535,3.7542,3.7548,0,0,0,0,0,3.7007,3.706,3.7058,3.7072,3.715,3.7208,3.7218,3.7231,3.7213,3.7239,3.7261,3.7256,3.7369,3.7343,3.7357,3.7391,3.7503,3.7508,3.7512,3.7532,3.754,3.7547,0,0,0,0,0,0,3.702,3.7066,3.7064,3.7132,3.7166,3.7207,3.7241,3.7239,3.7279,3.7276,3.729,3.73,3.7362,3.7382,3.7352,3.7459,3.7434,3.7441,3.7444,3.7452,3.7458,3.7453,3.7335,0,0,0,0,0,3.7031,3.7075,3.7112,3.7168,3.7186,3.721,3.7236,3.7243,3.7279,3.7293,3.7319,3.7354,3.7397,3.7426,3.7467,3.7537,3.7547,3.7567,3.7574,3.7579,3.7586,3.7625,3.7635,3.753,3.753,3.753,0,0,3.7054,3.7084,3.7111,3.7172,3.7199,3.7244,3.7222,3.727,3.7304,3.73,3.7361,3.7381,3.742,3.7487,3.7517,3.7506,3.7617,3.7585,3.7589,3.7593,3.7631,3.7641,3.7649,3.7533,3.7532,3.7532,0,0,3.7119,3.7146,3.7197,3.7224,3.7266,3.7282,3.7294,3.7335,3.7348,3.7409,3.7408,3.7447,3.7521,3.755,3.7574,3.7649,3.7647,3.7662,3.7697,3.7735,3.7743,3.775,3.7778,3.7788,3.7669,3.7669,3.7669,0,3.7143,3.721,3.7223,3.7272,3.7299,3.7298,3.7349,3.7375,3.7428,3.7447,3.7432,3.7526,3.7552,3.7626,3.7644,3.7663,3.7678,3.7658,3.7741,3.7748,3.7755,3.7782,3.7792,3.7671,3.7671,3.767,3.767,0,3.7238,3.7284,3.732,3.7372,3.7402,3.7452,3.7472,3.7502,3.7506,3.7524,3.7585,3.7617,3.7666,3.7683,3.7688,3.7757,3.7749,3.7738,3.7713,3.7767,3.7792,3.7803,3.7673,3.7673,3.7672,3.7672,0,0,3.7314,3.7372,3.7385,3.7409,3.7454,3.749,3.754,3.7587,3.7613,3.7649,3.7691,3.7754,3.7744,3.7771,3.7779,3.7812,3.7871,3.7797,3.7798,3.781,3.795,3.7959,3.797,3.7868,3.787,3.7872,3.7947,0,3.7385,3.7473,3.7486,3.7564,3.7608,3.7607,3.765,3.7683,3.77,3.7739,3.7758,3.7803,3.7786,3.7802,3.7835,3.7857,3.7899,3.7851,3.7908,3.791,3.79,3.7984,3.7993,3.8062,3.7957,3.7958,3.796,0,3.7479,3.7519,3.7601,3.7641,3.766,3.7698,3.7743,3.778,3.7817,3.7827,3.7858,3.7861,3.7913,3.7885,3.7956,3.7923,3.7947,3.7961,3.7964,3.7971,3.7939,3.7994,3.8085,3.8096,3.7975,3.7974,3.7973,0,3.7528,3.7602,3.7661,3.7681,3.7728,3.7755,3.7776,3.7811,3.7839,3.7878,3.7896,3.794,3.7965,3.7998,3.8014,3.7992,3.8084,3.8057,3.8094,3.8094,3.8115,3.8114,3.8212,3.8128,3.8128,3.8128,3.8128,0,3.7607,3.7657,3.7683,3.772,3.7777,3.779,3.7846,3.7866,3.7897,3.7937,3.7939,3.7977,3.7994,3.8034,3.8046,3.8104,3.8114,3.8124,3.8127,3.8125,3.8124,3.8142,3.8138,3.8131,3.813,3.813,3.8129,0,3.7672,3.7691,3.7756,3.7795,3.7806,3.7846,3.788,3.7916,3.7932,3.7983,3.7996,3.8022,3.807,3.8088,3.8146,3.8154,3.8221,3.8219,3.8208,3.821,3.8246,3.8243,3.8361,3.8377,3.8281,3.8282,3.8283,0,3.7721,3.776,3.7804,3.7831,3.7853,3.7897,3.7925,3.794,3.7969,3.8014,3.8044,3.8091,3.813,3.8206,3.823,3.8275,3.8275,3.8313,3.8282,3.8278,3.8277,3.8275,3.8279,3.8319,3.832,3.8321,3.8322,0,3.7807,3.7814,3.7855,3.79,3.7934,3.797,3.8004,3.8026,3.8046,3.8079,3.8128,3.8158,3.8217,3.8265,3.831,3.8331,3.833,3.8331,3.8342,3.8341,3.8334,3.8339,3.8226,3.8329,3.8328,3.8327,3.8327,3.8327,3.7866,3.7901,3.7938,3.7983,3.8011,3.8043,3.8079,3.81,3.8141,3.819,3.8196,3.8249,3.8284,3.8345,3.8368,3.841,3.8399,3.8415,3.842,3.8424,3.8427,3.8326,3.8418,3.8417,3.8417,3.8417,3.8417,0,3.7953,3.7976,3.8018,3.8067,3.8103,3.8098,3.8136,3.8167,3.8213,3.8246,3.8284,3.834,3.8386,3.8414,3.8459,3.8487,3.8488,3.8499,3.8497,3.8503,3.8433,3.8419,3.8498,3.8497,3.8497,3.8497,3.8497,3.8497,3.8002,3.8061,3.8073,3.8146,3.8169,3.8221,3.8243,3.8273,3.8299,3.8362,3.84,3.8418,3.8449,3.8497,3.8539,3.8545,3.8563,3.8575,3.8581,3.8516,3.8507,3.8499,3.8487,3.8578,3.8578,3.8648,3.8648,3.8649]}]]